User: anonymous   Login
Location: Waning Moon II Observatory
(30.3730°N, 89.7620°W)
Time: 11:40:56
(UTC-06:00)
Language:

Cosmos 1825 Rocket - Orbit

View from above orbital plane
View from above orbital plane
View from above satellite
View from above satellite

Ground track
Ground track

The orbit data is extracted from the following two-line orbital elements,

1 17567U 87024B   16338.19734658  .00000103  00000-0  95683-5 0  9991
2 17567  82.5299  22.4610 0017660 273.0247  86.8947 14.83627029607404
Epoch (UTC): 03 December 2016 04:44:10
Eccentricity: 0.0017660
inclination: 82.5299°
perigee height: 605 km
apogee height: 630 km
right ascension of ascending node: 22.4610°
argument of perigee: 273.0247°
revolutions per day: 14.83627029
mean anomaly at epoch: 86.8947°
orbit number at epoch: 60740

The dashed part of the orbit path shows where the satellite is in the earth's shadow,  

DLR